Regional Weather Roundup
Issued by NWS

Home | Current Version | Previous Version | Graphics & Text | Print | Product List | Glossary On
Versions: 1 2 3 4 5 6 7 8 9 10 11 12 13 14 15 16 17 18 19 20 21 22 23 24 25 26 27
000
ASUS45 KCYS 240910
RWRWY

WYOMING REGIONAL WEATHER ROUNDUP
NATIONAL WEATHER SERVICE CHEYENNE WY
300 AM MDT MON APR 24 2017

NOTE:  "FAIR" INDICATES FEW OR NO CLOUDS BELOW 12,000 FEET
WITH NO SIGNIFICANT WEATHER AND/OR OBSTRUCTIONS TO VISIBILITY.

WYZ001-241000-
YELLOWSTONE NATIONAL PARK

CITY           SKY/WX    TMP DP  RH WIND       PRES   REMARKS
LK YELLOWSTONE   N/A     26  26 100 CALM      29.78F
W YELLOWSTONE  NOT AVBL

$$
WYZ002>013-054>058-071-098>099-241000-
NORTHERN WYOMING

CITY           SKY/WX    TMP DP  RH WIND       PRES   REMARKS
JACKSON        CLOUDY    34  32  93 CALM      29.77F
CODY           FAIR      36  33  89 CALM      29.72F
GREYBULL       FAIR      44  36  73 W6        29.68R
WORLAND        FAIR      40  38  93 SW7       29.69F
SHERIDAN       FAIR      40  37  89 W7        29.68S
BUFFALO        FAIR      44  37  76 NW17G29   29.67F
GILLETTE       CLOUDY    46  45  96 N9        29.63F
HULETT         CLOUDY    41  39  93 W3        29.66R FOG
NEWCASTLE      FAIR      46  39  76 N17G24    29.62F

$$
WYZ014>020-022>026-101>103-241000-
CENTRAL WYOMING

CITY           SKY/WX    TMP DP  RH WIND       PRES   REMARKS
BIG PINEY      FAIR      26  24  92 CALM      29.81F
PINEDALE       FAIR      27  23  86 CALM      29.82S
DUBOIS         PTSUNNY   32  27  80 W10       29.75F WCI  24
LANDER         FAIR      44  25  47 NW3       29.72F
RIVERTON       FAIR      41  29  62 W13       29.72F
CASPER         FAIR      43  34  70 SW9       29.69F
DOUGLAS        MOCLDY    49  39  68 NW13      29.67F

$$
WYZ021-027>030-104>119-241000-
SOUTHERN WYOMING

CITY           SKY/WX    TMP DP  RH WIND       PRES   REMARKS
EVANSTON       FAIR      33  29  85 SW10      29.82F WCI  25
KEMMERER         N/A     32  30  93 N5        29.83F WCI  27
ROCK SPRINGS   FAIR      37  33  85 W7        29.82F WCI  32
DIXON          DRIZZLE   39  37  92 E10       29.86F WCI  32
RAWLINS        FAIR      39  35  86 W15       29.80F WCI  31
SARATOGA       CLOUDY    37  37 100 SE6       29.84F WCI  33
LARAMIE        MOCLDY    42  33  70 NW13      29.77F
CHEYENNE       FAIR      48  34  58 NW20G28   29.71F
TORRINGTON     FAIR      55  37  50 W7        29.62R
PINE BLUFFS    FAIR      50  36  57 NW15      29.66S

$$




USA.gov is the U.S. government's official web portal to all federal, state and local government web resources and services.